Regional Weather Roundup
Issued by NWS Newport/Morehead, NC

Home | Current Version | Previous Version | Text Only | Print | Product List | Glossary On
Versions: 1 2 3 4 5 6 7 8 9 10 11 12 13 14 15 16 17 18 19 20 21 22 23 24 25 26 27 28 29 30 31 32 33 34 35 36 37 38 39 40 41 42 43 44 45 46 47 48 49 50
000
ASUS42 KMHX 041424
RWRMHX
WEATHER ROUNDUP FOR EASTERN NORTH CAROLINA
NATIONAL WEATHER SERVICE NEWPORT/MOREHEAD CITY NC
1000 AM EDT MON MAY 04 2015

NOTE: "FAIR" INDICATES FEW OR NO CLOUDS BELOW 12,000 FEET
WITH NO SIGNIFICANT WEATHER AND/OR OBSTRUCTIONS TO VISIBILITY

NCZ015>017-031-032-045>047-102-103-041500-
NORTH COAST

CITY           SKY/WX    TMP DP  RH WIND       PRES   REMARKS
EDENTON        SUNNY     72  57  60 W5        30.33S
ELIZABETH CITY SUNNY     73  56  54 W8        30.33R
KITTY HAWK     SUNNY     69  54  59 W8        30.32S
MANTEO         SUNNY     71  54  54 NW6       30.34R

$$

NCZ045>047-081-094-103-104-041500-
CENTRAL COAST

CITY           SKY/WX    TMP DP  RH WIND       PRES   REMARKS
FRISCO         SUNNY     67  53  61 W6        30.34R
SWANQUARTER      N/A     72 N/A N/A W5        30.30S

$$

NCZ095-097-098-100-101-041500-
SOUTHERN COAST

CITY           SKY/WX    TMP DP  RH WIND       PRES   REMARKS
BEAUFORT       SUNNY     73  56  54 CALM      30.35R
CEDAR ISLAND     N/A     70 N/A N/A N2        30.39S
JACKSONVILLE   SUNNY     72  55  55 W3        30.34R
PINEY ISLAND   SUNNY    N/A N/A N/A N5        30.34
WILMINGTON     SUNNY     75  56  51 W7        30.34R


$$

NCZ011>013-027>030-043-044-078>080-089-090>093-098-041500-
COASTAL PLAIN

CITY           SKY/WX    TMP DP  RH WIND       PRES   REMARKS
AHOSKIE        SUNNY     71  53  53 CALM      30.32S
CLINTON        SUNNY     70  60  70 SW3       30.34S
ELIZABETHTOWN  PTSUNNY   70  58  65 SW6       30.34S
GOLDSBORO      MOSUNNY   72  58  60 SW2       30.31R
GREENVILLE       N/A     70  59  68 CALM      30.34
HAVELOCK       SUNNY     73  51  46 W7        30.35S
KENANSVILLE    SUNNY     71  55  58 SW3       30.35R
KINSTON        SUNNY     70  57  64 SW5       30.35R
NEW BERN       SUNNY     73  56  54 SW5       30.35R
RICHLANDS      PTSUNNY   73  55  53 SW7       30.35S
ROCKY MOUNT    SUNNY     71  56  58 S7        30.33R
WASHINGTON     MOSUNNY   70  56  61 CALM      30.34S
WHITEVILLE     MOSUNNY   72  59  64 S5        30.34R

$$

AMZ130-135-150-152-154-156-158-170-250-252-270-ANZ085-086-088-633-658-670-041500-
MARINE OBSERVATIONS

STATION/POSITION TIME  TEMP    WIND        PRES    WAVE   SWELL
                       AIR SEA DIR/SP/G            HT/PER HT/PER
                 (UTC) (F)     (DEG/KT/KT) (MB)    (FT/S) (FT/S)
CHESAPEAKE LIGHT 1400   65     240/  6/  7 1027.1
64 E VA BEACH    1350   59 60  240/  6/  8 1026.2    3/ 9   3/ 9
DUCK             1400   68 53  260/  8/  9 1025.9
2 E DUCK         1411      58                N/A     3/10   2/11
OREGON INLET     1400   66 63  220/  6/  6 1027.1
13E OREGON INLT  1400      54                N/A     3/11   2/11
HATTERAS CG      1300   66 63  290/  4/  4 1026.8
DIAMOND BUOY     1350   67 77  310/  8/  8 1027.5    4/11   3/11
CAPE LOOKOUT     1400   66     100/  5/  5 1027.5
BEAUFORT LAB     1300   67 64  360/  4/  5 1026.3
27 SE WRIGHTSVLE 1400   69 71   70/  4/  4   N/A
5 SE WRIGHTSVLE  1308   67 67   60/  2/  4 1027.2
225 S CAPE HAT   1350   68 70   60/ 16/ 17 1027.3    5/12   5/12
41 SE CHARLESTON 1350   73 74   70/ 10/ 10 1026.5    3/10   2/10

$$


USA.gov is the U.S. government's official web portal to all federal, state and local government web resources and services.